星链-5689 (STARLINK-5689 )

导读

STARLINK-5689是美国SpaceX公司星链(Starlink)卫星互联网星座项目中的一颗低轨通信卫星,于北京时间2023年2月2日发射入轨。星链计划旨在通过大规模低轨卫星组网,为全球尤其是地面网络难以覆盖的偏远地区,提供高速低延迟的宽带互联网服务。截至2026年初,星链已完成超过九千颗卫星部署,服务覆盖上百个国家和地区,推动了全球互联网接入普及,也引发太空轨道拥堵等相关讨论。

Basic Information
目录编号:
55474
目录名称:
STARLINK-5689
国际标识:
2023-015AB
轨道中心:
EARTH
卫星名称:
星链-5689
卫星全名:
星链-5689 (STARLINK-5689 )
卫星状态:
在轨 (已飞行1229 天)
发射日期:
2023-02-02 UTC
国别 :
美国 (US)
星等 :
--
Orbit Information
数据来源 国际轨道数据 AOE轨道数据
星历时间 2026-06-15T00:08:29+0800
12小时前
查看轨道信息
2026-06-14T01:00:00+0800
1天前
查看轨道信息
半长轴 6861.202km 6861.169km
偏心率 0.0000862 0.0000011
轨道倾角 43.011° 43.000°
近地点辐角 288.144° 3.804°
升交点赤经 152.359° 157.804°
平近点角 71.931° 87.523°
近地点 482.473km 483.024km
远地点 483.657km 483.04km
周期 94.267分钟 94.266分钟
每日圈数 15.27575 15.275858
Detailed Information
固有亮度:
5
最大亮度:
2.5
卫星平台:
Starlink v1.5
覆盖范围:
全球
运营商:
太空探索技术公司
运营商所在国:
美国
制造商(研发单位):
太空探索技术公司
制造商所在国:
美国
使用方式:
暂无
Satellite Introduction
星链(Starlink)计划是由太空探索技术公司(SpaceX)提出的一个巨型低轨卫星互联网星座项目,计划在2019年至2024年间在太空搭建由约1.2万颗卫星组成的“星链”网络,其中1584颗将部署在地球上空550千米处的近地轨道,并从2020年开始工作。该卫星仍在工作。
2D Orbit Map
3D Orbit Map
Orbit Altitude Analysis Chart
Orbit Inclination Analysis Chart
Orbit Comprehensive Analysis Chart
View Comprehensive Chart